Location: Kumla
(59.1265°N, 15.1401°E)
Time: 09:30:04
(UTC+01:00)

Transit 2A - Pass Details

Date: 04 December 2023
Orbit: 600 x 953 km, 66.7° (Epoch: 22 February)

Event Time Altitude Azimuth Distance (km) Brightness Sun altitude
Rises 20:02:33 0° 286° (WNW) 2,990 10.1 -35.8°
Reaches altitude 10° 20:05:08 10° 297° (WNW) 2,035 8.9 -36.2°
Enters shadow 20:06:26 17° 307° (NW) 1,603 8.2 -36.3°
Maximum altitude 20:09:11 31° 360° (N) 1,092 - -36.6°
Drops below altitude 10° 20:13:06 10° 63° (ENE) 1,957 - -37.1°
Sets 20:15:32 0° 75° (ENE) 2,856 - -37.4°
